Weather History for KADF - January, 2014

Change the Weather History Date:

Friday, January 24, 2014

  Actual Average Record
Temperature  
Mean Temperature 26 °F -  
Max Temperature 38 °F - - ()
Min Temperature 15 °F - - ()
Degree Days  
Heating Degree Days 38    
Moisture  
Dew Point 3 °F    
Average Humidity 40    
Maximum Humidity 62    
Minimum Humidity 20    
Precipitation  
Precipitation 0.00 in - - ()
Sea Level Pressure  
Sea Level Pressure 30.60 in    
Wind  
Wind Speed 6 mph (SE)    
Max Wind Speed 9 mph    
Max Gust Speed -    
Visibility 10 miles    
Events      
Averages and records for this station are not official NWS values.
T = Trace of Precipitation, MM = Missing Value Source: NWS Daily Summary

Daily Weather History Graph

Daily Weather History Graph

Search for Another Location

Airport or City:

Trip Planner

Search our weather history database for the weather conditions in past years. The results will help you decide how hot, cold, wet, or windy it might be!

Date:

Astronomy

Jan. 24, 2014 Rise Set
Actual Time 7:14 AM CST 5:34 PM CST
Civil Twilight 6:47 AM CST 6:01 PM CST
Nautical Twilight 6:17 AM CST 6:31 PM CST
Astronomical Twilight 5:47 AM CST 7:01 PM CST
Moon 12:46 AM CST (1/24) 11:51 AM CST (1/24)
Length of Visible Light 11h 13m
Length of Day
10h 20m
Last Quarter, 44% of the Moon is Illuminated
Jan 24
Last Quarter
Jan 30
New
Feb 6
First Quarter
Feb 14
Full
Feb 22
Last Quarter

Hourly Weather History & Observations

Time (CST) Temp. Windchill Dew Point Humidity Pressure Visibility Wind Dir Wind Speed Gust Speed Precip Events Conditions
12:56 AM 24.1 °F 14.4 °F -0.9 °F 34% 30.84 in 10.0 mi NE 9.2 mph - N/A   Clear
1:56 AM 22.1 °F 12.0 °F 0.1 °F 38% 30.84 in 10.0 mi NE 9.2 mph - N/A   Clear
2:56 AM 20.1 °F 9.5 °F 0.1 °F 42% 30.82 in 10.0 mi NNE 9.2 mph - N/A   Clear
3:56 AM 18.1 °F 8.9 °F 1.0 °F 47% 30.82 in 10.0 mi NE 6.9 mph - N/A   Clear
4:56 AM 17.1 °F 10.0 °F 2.1 °F 52% 30.80 in 10.0 mi NE 4.6 mph - N/A   Clear
5:56 AM 16.2 °F 7.6 °F 4.1 °F 59% 30.79 in 10.0 mi NE 5.8 mph - N/A   Clear
6:56 AM 15.1 °F 7.7 °F 4.1 °F 62% 30.79 in 10.0 mi NE 4.6 mph - N/A   Clear
7:56 AM 16.2 °F - 5.0 °F 62% 30.79 in 10.0 mi Calm Calm - N/A   Clear
8:56 AM 19.0 °F 12.3 °F -0.9 °F 42% 30.78 in 10.0 mi East 4.6 mph - N/A   Clear
9:56 AM 22.1 °F 17.4 °F -0.9 °F 37% 30.77 in 10.0 mi ESE 3.5 mph - N/A   Clear
10:56 AM 25.2 °F 19.5 °F -0.9 °F 32% 30.74 in 10.0 mi SSE 4.6 mph - N/A   Clear
11:56 AM 29.1 °F - 1.0 °F 30% 30.69 in 10.0 mi Calm Calm - N/A   Clear
12:56 PM 34.0 °F 27.2 °F 1.0 °F 25% 30.61 in 10.0 mi SW 8.1 mph - N/A   Clear
1:56 PM 36.0 °F 30.3 °F -1.8 °F 20% 30.55 in 10.0 mi WSW 6.9 mph - N/A   Clear
2:56 PM 38.8 °F 32.6 °F 1.0 °F 20% 30.50 in 10.0 mi SW 9.2 mph - N/A   Clear
3:56 PM 38.8 °F 32.6 °F 1.0 °F 20% 30.46 in 10.0 mi South 9.2 mph - N/A   Clear
4:56 PM 36.9 °F 30.1 °F 2.1 °F 23% 30.44 in 10.0 mi SSW 9.2 mph - N/A   Clear
5:56 PM 32.9 °F 26.7 °F 4.1 °F 30% 30.41 in 10.0 mi SSW 6.9 mph - N/A   Clear
6:56 PM 29.1 °F 23.0 °F 7.2 °F 40% 30.40 in 10.0 mi SSW 5.8 mph - N/A   Clear
7:56 PM 27.1 °F 23.2 °F 8.1 °F 45% 30.37 in 10.0 mi SSW 3.5 mph - N/A   Clear
8:56 PM 28.0 °F - 8.1 °F 43% 30.34 in 10.0 mi Calm Calm - N/A   Clear
9:56 PM 27.1 °F - 7.2 °F 43% 30.32 in 10.0 mi Calm Calm - N/A   Clear
10:56 PM 26.1 °F - 10.0 °F 51% 30.31 in 10.0 mi Calm Calm - N/A   Clear
11:56 PM 24.1 °F - 11.1 °F 58% 30.28 in 10.0 mi Calm Calm - N/A   Clear